TimeEST,TemperatureF,Dew PointF,Humidity,Sea Level PressureIn,VisibilityMPH,Wind Direction,Wind SpeedMPH,Gust SpeedMPH,PrecipitationIn,Events,Conditions,WindDirDegrees,DateUTC
12:54 AM,30.0,25.0,82,30.44,10.0,North,4.6,-,N/A,,Clear,360,2012-11-17 05:54:00
1:54 AM,30.9,25.0,79,30.45,10.0,North,4.6,-,N/A,,Clear,360,2012-11-17 06:54:00
2:54 AM,30.9,25.0,79,30.46,10.0,North,4.6,-,N/A,,Clear,360,2012-11-17 07:54:00
3:54 AM,30.0,25.0,82,30.47,10.0,North,4.6,-,N/A,,Clear,350,2012-11-17 08:54:00
4:54 AM,30.9,25.0,79,30.48,10.0,North,4.6,-,N/A,,Clear,360,2012-11-17 09:54:00
5:54 AM,32.0,25.0,75,30.50,10.0,North,5.8,-,N/A,,Clear,360,2012-11-17 10:54:00
6:54 AM,32.0,25.0,75,30.52,10.0,North,5.8,-,N/A,,Clear,360,2012-11-17 11:54:00
7:54 AM,35.1,26.1,70,30.55,10.0,North,8.1,-,N/A,,Clear,360,2012-11-17 12:54:00
8:54 AM,41.0,28.9,62,30.56,10.0,NNE,10.4,-,N/A,,Clear,20,2012-11-17 13:54:00
9:54 AM,45.0,30.0,56,30.57,10.0,NE,10.4,-,N/A,,Clear,40,2012-11-17 14:54:00
10:54 AM,48.0,30.9,52,30.58,10.0,NE,12.7,-,N/A,,Clear,40,2012-11-17 15:54:00
11:54 AM,51.1,30.9,46,30.57,10.0,NNE,12.7,-,N/A,,Clear,30,2012-11-17 16:54:00
12:54 PM,52.0,30.9,45,30.56,10.0,NE,8.1,-,N/A,,Clear,50,2012-11-17 17:54:00
1:54 PM,54.0,33.1,45,30.55,10.0,ENE,6.9,-,N/A,,Clear,60,2012-11-17 18:54:00
2:54 PM,53.1,35.1,50,30.56,10.0,East,6.9,-,N/A,,Clear,90,2012-11-17 19:54:00
3:54 PM,51.1,37.0,59,30.57,10.0,ENE,8.1,-,N/A,,Clear,70,2012-11-17 20:54:00
4:54 PM,44.1,37.0,76,30.58,10.0,East,6.9,-,N/A,,Clear,90,2012-11-17 21:54:00
5:54 PM,41.0,36.0,82,30.59,10.0,ESE,3.5,-,N/A,,Clear,110,2012-11-17 22:54:00
6:54 PM,37.9,34.0,86,30.60,10.0,Calm,Calm,-,N/A,,Clear,0,2012-11-17 23:54:00
7:54 PM,42.1,37.0,82,30.60,10.0,ENE,4.6,-,N/A,,Clear,60,2012-11-18 00:54:00
8:54 PM,39.0,35.1,86,30.61,10.0,Calm,Calm,-,N/A,,Clear,0,2012-11-18 01:54:00
9:54 PM,35.1,34.0,96,30.61,10.0,Calm,Calm,-,N/A,,Clear,0,2012-11-18 02:54:00
10:54 PM,35.1,34.0,96,30.61,9.0,North,3.5,-,N/A,,Clear,10,2012-11-18 03:54:00
11:54 PM,36.0,33.1,89,30.60,10.0,NNE,3.5,-,N/A,,Clear,20,2012-11-18 04:54:00